Weather History for LEZL - March, 2013

Change the Weather History Date:

Saturday, March 9, 2013

  Actual Average Record
Temperature  
Mean Temperature 60 °F -  
Max Temperature 66 °F 70 °F 78 °F (1998)
Min Temperature 55 °F 48 °F 41 °F (2005)
Degree Days  
Heating Degree Days 4    
Growing Degree Days 10 (Base 50)    
Moisture  
Dew Point 54 °F    
Average Humidity 81    
Maximum Humidity 100    
Minimum Humidity 63    
Precipitation  
Precipitation 0.00 in - - ()
Sea Level Pressure  
Sea Level Pressure 29.83 in    
Wind  
Wind Speed 11 mph ()    
Max Wind Speed 24 mph    
Max Gust Speed 36 mph    
Visibility 5.6 miles    
Events Rain , Thunderstorm    
Averages and records for this station are not official NWS values.
T = Trace of Precipitation, MM = Missing Value Source: Averaged Metar Reports

Daily Weather History Graph

Daily Weather History Graph

Search for Another Location

Airport or City:

Trip Planner

Search our weather history database for the weather conditions in past years. The results will help you decide how hot, cold, wet, or windy it might be!

Date:

Astronomy

Mar. 09, 2013 Rise Set
Actual Time 7:43 AM CET 7:25 PM CET
Civil Twilight 7:17 AM CET 7:51 PM CET
Nautical Twilight 6:47 AM CET 8:21 PM CET
Astronomical Twilight 6:16 AM CET 8:52 PM CET
Moon 5:56 AM CET (3/9) 5:13 PM CET (3/9)
Length of Visible Light 12h 33m
Length of Day
11h 41m
Waning Crescent, 7% of the Moon is Illuminated
Mar 9
Waning Crescent
Mar 11
New
Mar 19
First Quarter
Mar 27
Full
Apr 3
Last Quarter

Hourly Weather History & Observations

Time (CET) Temp. Dew Point Humidity Pressure Visibility Wind Dir Wind Speed Gust Speed Precip Events Conditions
12:00 AM 57.2 °F 55.4 °F 94% 29.89 in 6.2 mi WSW 9.2 mph - N/A   Scattered Clouds
12:30 AM 57.2 °F 57.2 °F 100% 29.86 in 6.2 mi SW 4.6 mph - N/A   Light Drizzle
1:00 AM 57.2 °F 57.2 °F 100% 29.86 in 3.1 mi SW 4.6 mph - N/A Rain Rain
4:30 AM 57.2 °F 55.4 °F 94% 29.80 in 5.0 mi WSW 13.8 mph - N/A   Scattered Clouds
5:00 AM 57.2 °F 55.4 °F 94% 29.80 in 5.0 mi SW 10.4 mph - N/A   Light Drizzle
5:30 AM 57.2 °F 55.4 °F 94% 29.80 in 5.0 mi SW 9.2 mph - N/A Rain , Thunderstorm Thunderstorms and Rain
6:00 AM 57.2 °F 55.4 °F 94% 29.80 in 5.0 mi SW 10.4 mph - N/A Rain , Thunderstorm Thunderstorms and Rain
6:30 AM 57.2 °F 55.4 °F 94% 29.83 in 5.0 mi WSW 8.1 mph - N/A   Scattered Clouds
7:00 AM 57.2 °F 55.4 °F 94% 29.83 in 5.6 mi SW 8.1 mph - N/A   Mostly Cloudy
7:30 AM 57.2 °F 57.2 °F 100% 29.83 in 5.0 mi SW 9.2 mph - N/A   Scattered Clouds
8:00 AM 57.2 °F 57.2 °F 100% 29.83 in 5.0 mi SW 9.2 mph - N/A   Scattered Clouds
8:30 AM 59.0 °F 57.2 °F 94% 29.83 in 4.3 mi SW 10.4 mph - N/A   Scattered Clouds
9:00 AM 59.0 °F 57.2 °F 94% 29.83 in 4.3 mi SW 8.1 mph - N/A   Partly Cloudy
9:30 AM 59.0 °F 57.2 °F 94% 29.83 in 4.3 mi SW 10.4 mph - N/A   Partly Cloudy
10:00 AM 59.0 °F 57.2 °F 94% 29.83 in 4.3 mi SW 11.5 mph - N/A   Mostly Cloudy
10:30 AM 60.8 °F 59.0 °F 94% 29.83 in 5.0 mi SW 13.8 mph - N/A   Partly Cloudy
11:00 AM 60.8 °F 57.2 °F 88% 29.83 in 6.2 mi SW 12.7 mph - N/A   Scattered Clouds
11:30 AM 62.6 °F 55.4 °F 77% 29.83 in 6.2 mi SW 15.0 mph - N/A   Scattered Clouds
12:00 PM 64.4 °F 55.4 °F 73% 29.83 in 6.2 mi SW 13.8 mph - N/A   Scattered Clouds
12:30 PM 64.4 °F 55.4 °F 73% 29.83 in 6.2 mi SW 15.0 mph - N/A   Scattered Clouds
1:00 PM 64.4 °F 53.6 °F 68% 29.83 in 6.2 mi WSW 13.8 mph - N/A   Scattered Clouds
1:30 PM 64.4 °F 51.8 °F 64% 29.83 in 6.2 mi SW 16.1 mph - N/A   Scattered Clouds
2:00 PM 64.4 °F 53.6 °F 68% 29.83 in 6.2 mi SW 16.1 mph - N/A   Scattered Clouds
2:30 PM 66.2 °F 53.6 °F 64% 29.80 in 6.2 mi SW 20.7 mph 32.2 mph N/A   Scattered Clouds
3:00 PM 64.4 °F 51.8 °F 64% 29.80 in 6.2 mi SW 23.0 mph - N/A   Mostly Cloudy
3:30 PM 62.6 °F 51.8 °F 68% 29.80 in 6.2 mi SW 24.2 mph - N/A   Scattered Clouds
4:00 PM 62.6 °F 50.0 °F 63% 29.80 in 6.2 mi SW 23.0 mph 35.7 mph N/A   Scattered Clouds
4:30 PM 62.6 °F 50.0 °F 63% 29.80 in 6.2 mi SW 20.7 mph - N/A   Scattered Clouds
5:00 PM 62.6 °F 51.8 °F 68% 29.80 in 6.2 mi SW 16.1 mph - N/A   Partly Cloudy
5:30 PM 62.6 °F 50.0 °F 63% 29.80 in 6.2 mi SW 18.4 mph 29.9 mph N/A   Partly Cloudy
6:00 PM 62.6 °F 50.0 °F 63% 29.80 in 6.2 mi SW 17.3 mph - N/A   Partly Cloudy
6:30 PM 60.8 °F 48.2 °F 63% 29.80 in 6.2 mi SW 16.1 mph - N/A   Partly Cloudy
7:00 PM 60.8 °F 48.2 °F 63% 29.80 in 6.2 mi SW 12.7 mph - N/A   Partly Cloudy
7:30 PM 59.0 °F 50.0 °F 72% 29.83 in 6.2 mi SW 10.4 mph - N/A   Partly Cloudy
8:00 PM 59.0 °F 50.0 °F 72% 29.83 in 6.2 mi SW 13.8 mph - N/A   Partly Cloudy
8:30 PM 57.2 °F 50.0 °F 77% 29.86 in 6.2 mi SW 12.7 mph - N/A   Partly Cloudy
9:00 PM 57.2 °F 50.0 °F 77% 29.86 in 6.2 mi SW 12.7 mph - N/A   Partly Cloudy
9:30 PM 57.2 °F 51.8 °F 82% 29.86 in - SW 11.5 mph - N/A   Clear
10:00 PM 55.4 °F 51.8 °F 88% 29.86 in - SW 12.7 mph - N/A   Clear
10:30 PM 55.4 °F 50.0 °F 82% 29.86 in - SW 12.7 mph - N/A   Clear
11:00 PM 55.4 °F 51.8 °F 88% 29.86 in - SW 12.7 mph - N/A   Clear
11:30 PM 55.4 °F 51.8 °F 88% 29.86 in - SW 10.4 mph - N/A   Clear